DLH176 LPPT-LPFR

Flight info

Callsign DLH176
Flight time N/A
Altitude 17000
Route DUZOP1S DUZOP DCT ODEMI ODEMI1C
Aircraft B737/M-V/N

Departure

Time 2026-04-28 11:26
Airport Lisbon Humberto Delgado Airport (LPPT)

Arrival

Time N/A
Airport Faro - Gago Coutinho International Airport (LPFR)
Time Latitude Longitude Altitude Speed Heading
2026-04-28 11:03 38.77898 -9.13284 335 ft 0 kts 257°
2026-04-28 11:15 38.77900 -9.13273 335 ft 3 kts 257°
2026-04-28 11:15 38.77905 -9.13247 334 ft 2 kts 259°
2026-04-28 11:16 38.77907 -9.13230 334 ft 0 kts 269°
2026-04-28 11:16 38.77907 -9.13226 333 ft 0 kts 266°
2026-04-28 11:16 38.77908 -9.13217 333 ft 2 kts 260°
2026-04-28 11:16 38.77910 -9.13204 333 ft 1 kts 256°
2026-04-28 11:17 38.77912 -9.13194 332 ft 1 kts 246°
2026-04-28 11:17 38.77913 -9.13190 332 ft 0 kts 241°
2026-04-28 11:17 38.77887 -9.13233 333 ft 4 kts 207°
2026-04-28 11:17 38.77878 -9.13234 333 ft 1 kts 174°
2026-04-28 11:18 38.77875 -9.13234 333 ft 0 kts 174°
2026-04-28 11:20 38.77872 -9.13233 333 ft 1 kts 173°
2026-04-28 11:20 38.77829 -9.13224 332 ft 13 kts 171°
2026-04-28 11:20 38.77748 -9.13261 332 ft 10 kts 245°
2026-04-28 11:21 38.77750 -9.13312 334 ft 1 kts 298°
2026-04-28 11:21 38.77750 -9.13313 334 ft 0 kts 298°
2026-04-28 11:21 38.77805 -9.13352 337 ft 21 kts 346°
2026-04-28 11:21 38.77957 -9.13395 342 ft 22 kts 352°
2026-04-28 11:22 38.78110 -9.13373 346 ft 22 kts 20°
2026-04-28 11:22 38.78258 -9.13294 347 ft 22 kts 22°
2026-04-28 11:22 38.78349 -9.13245 348 ft 0 kts 22°
2026-04-28 11:24 38.78415 -9.13223 348 ft 22 kts
2026-04-28 11:24 38.78512 -9.13391 359 ft 25 kts 216°
2026-04-28 11:25 38.78498 -9.13400 360 ft 0 kts 203°
2026-04-28 11:25 38.78399 -9.13453 361 ft 49 kts 202°
2026-04-28 11:25 38.77841 -9.13746 361 ft 121 kts 204°
2026-04-28 11:25 38.76875 -9.14274 373 ft 176 kts 202°
2026-04-28 11:26 38.75708 -9.14781 883 ft 184 kts 189°
2026-04-28 11:26 38.74303 -9.14459 696 ft 228 kts 152°
2026-04-28 11:26 38.73168 -9.12963 904 ft 248 kts 116°
2026-04-28 11:26 38.72839 -9.10804 1727 ft 258 kts 84°
2026-04-28 11:27 38.73418 -9.08664 2794 ft 262 kts 54°
2026-04-28 11:27 38.74762 -9.07131 3940 ft 264 kts 26°
2026-04-28 11:27 38.76537 -9.06587 4998 ft 270 kts 358°
2026-04-28 11:27 38.78339 -9.07133 6134 ft 273 kts 339°
2026-04-28 11:28 38.80119 -9.07966 7256 ft 277 kts 340°
2026-04-28 11:28 38.81940 -9.08812 8280 ft 283 kts 340°
2026-04-28 11:28 38.83762 -9.09659 9332 ft 286 kts 340°
2026-04-28 11:28 38.85621 -9.10521 10069 ft 288 kts 341°
2026-04-28 11:29 38.87679 -9.10849 10169 ft 317 kts
2026-04-28 11:29 38.90005 -9.10504 10165 ft 343 kts
2026-04-28 11:29 38.92345 -9.09972 10109 ft 339 kts 16°
2026-04-28 11:29 38.94390 -9.08592 10131 ft 335 kts 40°
2026-04-28 11:30 38.95870 -9.06259 10136 ft 335 kts 63°
2026-04-28 11:30 38.96276 -9.00487 10137 ft 335 kts 108°
2026-04-28 11:30 38.95169 -8.97887 10137 ft 335 kts 131°
2026-04-28 11:31 38.93335 -8.96038 10134 ft 335 kts 156°
2026-04-28 11:31 38.91075 -8.95493 10146 ft 335 kts 184°
2026-04-28 11:31 38.88879 -8.96359 10147 ft 335 kts 212°
2026-04-28 11:31 38.87209 -8.98453 10152 ft 335 kts 234°
2026-04-28 11:32 38.85811 -9.00835 10122 ft 335 kts 233°
2026-04-28 11:32 38.84415 -9.03208 10124 ft 335 kts 233°
2026-04-28 11:32 38.83011 -9.05593 10122 ft 335 kts 233°
2026-04-28 11:32 38.81610 -9.07972 10122 ft 335 kts 233°
2026-04-28 11:33 38.80203 -9.10360 10121 ft 335 kts 233°
2026-04-28 11:33 38.78719 -9.12651 10106 ft 334 kts 219°
2026-04-28 11:33 38.76704 -9.14126 10151 ft 335 kts 206°
2026-04-28 11:33 38.74580 -9.15368 10123 ft 335 kts 204°
2026-04-28 11:34 38.72438 -9.16552 10120 ft 335 kts 203°
2026-04-28 11:34 38.70316 -9.17710 10120 ft 335 kts 203°
2026-04-28 11:34 38.68157 -9.18883 10120 ft 335 kts 203°
2026-04-28 11:34 38.66017 -9.20045 10120 ft 335 kts 203°
2026-04-28 11:35 38.63851 -9.21064 10107 ft 334 kts 189°
2026-04-28 11:35 38.61594 -9.21805 10137 ft 335 kts 204°
2026-04-28 11:35 38.59390 -9.22720 10135 ft 336 kts 197°
2026-04-28 11:35 38.57100 -9.23402 10108 ft 335 kts 181°
2026-04-28 11:36 38.54840 -9.22781 10149 ft 335 kts 155°
2026-04-28 11:36 38.52796 -9.21392 10139 ft 335 kts 151°
2026-04-28 11:36 38.50756 -9.19906 10123 ft 335 kts 150°
2026-04-28 11:36 38.48741 -9.18417 10121 ft 335 kts 150°
2026-04-28 11:37 38.46742 -9.16937 10121 ft 335 kts 150°
2026-04-28 11:37 38.44718 -9.15438 10121 ft 335 kts 150°
2026-04-28 11:37 38.42717 -9.13958 10121 ft 335 kts 150°
2026-04-28 11:37 38.40688 -9.12457 10120 ft 335 kts 150°
2026-04-28 11:38 38.38692 -9.10981 10121 ft 335 kts 150°
2026-04-28 11:38 38.36664 -9.09483 10120 ft 335 kts 150°
2026-04-28 11:38 38.34671 -9.08012 10120 ft 335 kts 150°
2026-04-28 11:38 38.32648 -9.06519 10120 ft 335 kts 150°
2026-04-28 11:39 38.30619 -9.05023 10120 ft 335 kts 150°
2026-04-28 11:39 38.28621 -9.03552 10120 ft 335 kts 150°
2026-04-28 11:39 38.26590 -9.02059 10120 ft 335 kts 150°
2026-04-28 11:39 38.24589 -9.00587 10121 ft 335 kts 150°
2026-04-28 11:40 38.22560 -8.99095 10120 ft 335 kts 150°
2026-04-28 11:40 38.20562 -8.97627 10120 ft 335 kts 150°
2026-04-28 11:40 38.18526 -8.96132 10120 ft 335 kts 150°
2026-04-28 11:40 38.16506 -8.94649 10120 ft 335 kts 150°
2026-04-28 11:41 38.14514 -8.93188 10120 ft 335 kts 150°
2026-04-28 11:41 38.12484 -8.91700 10120 ft 335 kts 150°
2026-04-28 11:41 38.10458 -8.90216 10120 ft 335 kts 150°
2026-04-28 11:41 38.08455 -8.88750 10120 ft 335 kts 150°
2026-04-28 11:42 38.06375 -8.87384 10119 ft 334 kts 156°
2026-04-28 11:42 38.04250 -8.86178 10123 ft 335 kts 156°
2026-04-28 11:42 38.02150 -8.84988 10120 ft 335 kts 156°
2026-04-28 11:42 38.00011 -8.83776 10120 ft 335 kts 156°
2026-04-28 11:43 37.97895 -8.82578 10120 ft 335 kts 156°
2026-04-28 11:43 37.95744 -8.81361 10120 ft 335 kts 156°
2026-04-28 11:43 37.93637 -8.80170 10120 ft 335 kts 156°
2026-04-28 11:43 37.91500 -8.78962 10120 ft 335 kts 156°
2026-04-28 11:44 37.89388 -8.77770 10120 ft 335 kts 156°
2026-04-28 11:44 37.87249 -8.76563 10120 ft 335 kts 156°
2026-04-28 11:44 37.85109 -8.75357 10120 ft 335 kts 156°
2026-04-28 11:44 37.82997 -8.74166 10120 ft 335 kts 156°
2026-04-28 11:45 37.80858 -8.72961 10120 ft 335 kts 156°
2026-04-28 11:45 37.78749 -8.71774 10120 ft 335 kts 156°
2026-04-28 11:45 37.76612 -8.70572 10120 ft 335 kts 156°
2026-04-28 11:45 37.74487 -8.69378 10120 ft 335 kts 156°
2026-04-28 11:46 37.72358 -8.68182 10120 ft 335 kts 156°
2026-04-28 11:46 37.70231 -8.66988 10120 ft 335 kts 156°
2026-04-28 11:46 37.68106 -8.65794 10119 ft 334 kts 155°
2026-04-28 11:46 37.66269 -8.64002 10146 ft 334 kts 128°
2026-04-28 11:47 37.64795 -8.61733 10130 ft 336 kts 129°
2026-04-28 11:47 37.63340 -8.59482 10121 ft 335 kts 129°
2026-04-28 11:47 37.61863 -8.57190 10121 ft 335 kts 129°
2026-04-28 11:47 37.60389 -8.54903 10121 ft 335 kts 129°
2026-04-28 11:48 37.58937 -8.52646 10120 ft 335 kts 129°
2026-04-28 11:48 37.57464 -8.50359 10120 ft 335 kts 128°
2026-04-28 11:48 37.55992 -8.48074 10120 ft 335 kts 128°
2026-04-28 11:48 37.54531 -8.45808 10120 ft 335 kts 128°
2026-04-28 11:49 37.53062 -8.43531 10112 ft 327 kts 128°
2026-04-28 11:49 37.51671 -8.41375 10105 ft 308 kts 128°
2026-04-28 11:49 37.50352 -8.39382 10082 ft 290 kts 137°
2026-04-28 11:49 37.48637 -8.38256 10115 ft 274 kts 166°
2026-04-28 11:50 37.46781 -8.37711 10123 ft 277 kts 166°
2026-04-28 11:50 37.44896 -8.37174 10125 ft 279 kts 167°
2026-04-28 11:50 37.42974 -8.36647 10121 ft 279 kts 167°
2026-04-28 11:50 37.41090 -8.36141 10120 ft 279 kts 167°
2026-04-28 11:51 37.39171 -8.35632 10120 ft 279 kts 167°
2026-04-28 11:51 37.37281 -8.35134 10120 ft 279 kts 168°
2026-04-28 11:51 37.35367 -8.34631 10120 ft 279 kts 168°